Weather History for Key West NAF, FL

Change the Weather History Date:

Sunday, November 4, 2012

  Actual Average Record
Temperature  
Mean Temperature 74 °F -  
Max Temperature 78 °F 81 °F 87 °F (1988)
Min Temperature 71 °F 73 °F 57 °F (1966)
Cooling Degree Days 10    
Growing Degree Days 24 (Base 50)    
Moisture  
Dew Point 63 °F    
Average Humidity 67    
Maximum Humidity 82    
Minimum Humidity 56    
Precipitation  
Precipitation 0.00 in - - ()
Sea Level Pressure  
Sea Level Pressure 30.06 in    
Wind  
Wind Speed 6 mph (ENE)    
Max Wind Speed 9 mph    
Max Gust Speed -    
Visibility 10 miles    
Events      
Averages and records for this station are not official NWS values.
T = Trace of Precipitation, MM = Missing Value Source: NWS Daily Summary

Daily Weather History Graph

Daily Weather History Graph

Search for Another Location

Airport:

Trip Planner

Search our weather history database for the weather conditions in past years. The results will help you decide how hot, cold, wet, or windy it might be!

Date:

Astronomy

Nov. 04, 2012 Rise Set
Actual Time 6:35 AM EST 5:44 PM EST
Civil Twilight 6:12 AM EST 6:08 PM EST
Nautical Twilight 5:45 AM EST 6:35 PM EST
Astronomical Twilight 5:18 AM EST 7:02 PM EST
Moon 10:26 PM EST (11/4) 11:11 AM EST (11/4)
Length of Visible Light 11h 56m
Length of Day
11h 08m
Waning Gibbous, 72% of the Moon is Illuminated
Nov 4
Waning Gibbous
Nov 6
Last Quarter
Nov 13
New
Nov 20
First Quarter
Nov 28
Full

Hourly Weather History & Observations

Time (EST) Temp. Dew Point Humidity Pressure Visibility Wind Dir Wind Speed Gust Speed Precip Events Conditions
12:53 AM - - N/A% 30.10 in 10.0 mi NE 3.5 mph - N/A   Clear
1:53 AM - - N/A% 30.09 in 10.0 mi NE 5.8 mph - N/A   Clear
1:53 AM - - N/A% 30.08 in 10.0 mi NE 5.8 mph - N/A   Clear
2:53 AM - - N/A% 30.07 in 10.0 mi NE 4.6 mph - N/A   Clear
3:53 AM - - N/A% 30.06 in 10.0 mi NE 5.8 mph - N/A   Clear
4:53 AM - - N/A% 30.06 in 10.0 mi ENE 4.6 mph - N/A   Clear
5:53 AM - - N/A% 30.07 in 10.0 mi NE 5.8 mph - N/A   Clear
5:57 AM 71.6 °F 64.4 °F 78% 30.08 in 10.0 mi NE 4.6 mph - N/A   Clear
6:53 AM 71.6 °F 64.9 °F 79% 30.08 in 10.0 mi NE 5.8 mph - N/A   Partly Cloudy
7:53 AM 71.6 °F 66.0 °F 82% 30.10 in 10.0 mi NE 6.9 mph - N/A   Partly Cloudy
8:53 AM 73.4 °F 64.9 °F 75% 30.11 in 10.0 mi ENE 5.8 mph - N/A   Partly Cloudy
9:53 AM 73.4 °F 63.0 °F 70% 30.11 in 10.0 mi NE 8.1 mph - N/A   Partly Cloudy
10:53 AM 75.2 °F 63.0 °F 66% 30.10 in 10.0 mi ENE 6.9 mph - N/A   Partly Cloudy
11:53 AM 77.0 °F 62.1 °F 60% 30.07 in 10.0 mi ENE 8.1 mph - N/A   Partly Cloudy
12:53 PM 78.8 °F 62.1 °F 56% 30.05 in 10.0 mi ENE 8.1 mph - N/A   Partly Cloudy
1:53 PM 78.8 °F 63.0 °F 58% 30.03 in 10.0 mi ENE 9.2 mph - N/A   Scattered Clouds
2:53 PM 78.8 °F 62.1 °F 56% 30.02 in 10.0 mi East 8.1 mph - N/A   Scattered Clouds
3:53 PM 77.0 °F 62.1 °F 60% 30.01 in 10.0 mi ENE 6.9 mph - N/A   Scattered Clouds
4:53 PM 77.0 °F 63.0 °F 62% 30.01 in 10.0 mi East 9.2 mph - N/A   Scattered Clouds
5:53 PM 73.4 °F 63.0 °F 70% 30.01 in 10.0 mi East 8.1 mph - N/A   Scattered Clouds
6:53 PM 73.4 °F 64.0 °F 72% 30.01 in 10.0 mi ENE 4.6 mph - N/A   Scattered Clouds
7:53 PM 73.4 °F 61.0 °F 65% 30.02 in 10.0 mi East 8.1 mph - N/A   Partly Cloudy
8:53 PM 73.4 °F 61.0 °F 65% 30.03 in 10.0 mi East 6.9 mph - N/A   Partly Cloudy
9:53 PM 73.4 °F 61.0 °F 65% 30.04 in 10.0 mi ESE 4.6 mph - N/A   Partly Cloudy
10:53 PM - - N/A% 30.03 in 10.0 mi Calm Calm - N/A   Clear